N950P KBNA-KPIT

Flight info

Callsign N950P
Flight time 2h 21m
Altitude 7000
Route BNA KRSTA
Aircraft C208/L-SDFGRY/C

Departure

Time 2026-05-07 16:25
Airport Nashville International Airport (KBNA)

Arrival

Time 2026-05-07 18:46
Airport Pittsburgh International Airport (KPIT)
Time Latitude Longitude Altitude Speed Heading
2026-05-07 16:16 36.12653 -86.68646 577 ft 0 kts 60°
2026-05-07 16:21 36.12653 -86.68647 577 ft 0 kts 60°
2026-05-07 16:22 36.12660 -86.68624 577 ft 9 kts 71°
2026-05-07 16:22 36.12600 -86.68562 577 ft 21 kts 170°
2026-05-07 16:22 36.12434 -86.68544 582 ft 24 kts 194°
2026-05-07 16:22 36.12320 -86.68583 583 ft 15 kts 200°
2026-05-07 16:23 36.12179 -86.68637 587 ft 26 kts 193°
2026-05-07 16:23 36.11984 -86.68723 596 ft 34 kts 200°
2026-05-07 16:23 36.11799 -86.68739 604 ft 10 kts 97°
2026-05-07 16:23 36.11790 -86.68691 604 ft 7 kts 106°
2026-05-07 16:24 36.11888 -86.68607 600 ft 36 kts 17°
2026-05-07 16:24 36.12316 -86.68434 590 ft 92 kts 22°
2026-05-07 16:24 36.12995 -86.68142 744 ft 114 kts 21°
2026-05-07 16:24 36.13726 -86.67857 1181 ft 104 kts 20°
2026-05-07 16:25 36.14413 -86.67640 1669 ft 101 kts 13°
2026-05-07 16:25 36.15097 -86.67432 2125 ft 102 kts 15°
2026-05-07 16:25 36.15783 -86.67186 2483 ft 104 kts 20°
2026-05-07 16:25 36.16464 -86.66850 2832 ft 106 kts 20°
2026-05-07 16:26 36.17159 -86.66523 3181 ft 108 kts 19°
2026-05-07 16:26 36.17861 -86.66185 3566 ft 109 kts 19°
2026-05-07 16:26 36.18569 -86.65848 3953 ft 109 kts 19°
2026-05-07 16:26 36.19052 -86.65618 4174 ft 111 kts 19°
2026-05-07 16:27 36.20005 -86.65163 4617 ft 112 kts 18°
2026-05-07 16:27 36.20735 -86.64818 4942 ft 113 kts 17°
2026-05-07 16:27 36.21470 -86.64471 5283 ft 113 kts 18°
2026-05-07 16:27 36.22208 -86.64113 5614 ft 114 kts 17°
2026-05-07 16:28 36.22955 -86.63758 5938 ft 116 kts 17°
2026-05-07 16:28 36.23710 -86.63400 6275 ft 116 kts 16°
2026-05-07 16:28 36.24469 -86.63036 6587 ft 118 kts 16°
2026-05-07 16:28 36.25241 -86.62667 6877 ft 120 kts 15°
2026-05-07 16:29 36.26026 -86.62295 7167 ft 122 kts 15°
2026-05-07 16:29 36.26820 -86.61916 7455 ft 123 kts 15°
2026-05-07 16:29 36.27625 -86.61532 7744 ft 125 kts 14°
2026-05-07 16:29 36.28440 -86.61144 8027 ft 126 kts 14°
2026-05-07 16:30 36.29262 -86.60750 8300 ft 128 kts 14°
2026-05-07 16:30 36.30100 -86.60350 8571 ft 129 kts 14°
2026-05-07 16:30 36.30945 -86.59947 8852 ft 131 kts 14°
2026-05-07 16:30 36.31825 -86.59530 8994 ft 144 kts 13°
2026-05-07 16:31 36.32810 -86.59062 9009 ft 159 kts 15°
2026-05-07 16:31 36.33874 -86.58547 9008 ft 169 kts 15°
2026-05-07 16:31 36.34984 -86.58009 9008 ft 173 kts 15°
2026-05-07 16:31 36.36120 -86.57465 9013 ft 176 kts 15°
2026-05-07 16:32 36.37265 -86.56917 9003 ft 177 kts 15°
2026-05-07 16:32 36.38417 -86.56367 8996 ft 178 kts 15°
2026-05-07 16:32 36.39574 -86.55815 8995 ft 178 kts 15°
2026-05-07 16:32 36.40731 -86.55261 8995 ft 178 kts 15°
2026-05-07 16:33 36.41886 -86.54707 8994 ft 178 kts 15°
2026-05-07 16:33 36.43037 -86.54155 8993 ft 177 kts 16°
2026-05-07 16:33 36.44187 -86.53606 8988 ft 178 kts 15°
2026-05-07 16:33 36.45342 -86.53053 8988 ft 178 kts 15°
2026-05-07 16:34 36.46494 -86.52501 8989 ft 178 kts 15°
2026-05-07 16:34 36.47650 -86.51947 8977 ft 178 kts 15°
2026-05-07 16:34 36.48801 -86.51393 8975 ft 178 kts 15°
2026-05-07 16:34 36.49967 -86.50835 8966 ft 178 kts 15°
2026-05-07 16:35 36.51122 -86.50281 8968 ft 178 kts 15°
2026-05-07 16:35 36.52278 -86.49727 8959 ft 178 kts 15°
2026-05-07 16:35 36.53419 -86.49181 8954 ft 178 kts 15°
2026-05-07 16:35 36.54579 -86.48623 8948 ft 179 kts 15°
2026-05-07 16:36 36.55737 -86.48064 8947 ft 179 kts 15°
2026-05-07 16:36 36.56896 -86.47509 8937 ft 178 kts 15°
2026-05-07 16:36 36.58051 -86.46952 8936 ft 178 kts 15°
2026-05-07 16:36 36.59204 -86.46400 8937 ft 177 kts 15°
2026-05-07 16:37 36.60350 -86.45846 8940 ft 177 kts 15°
2026-05-07 16:37 36.61501 -86.45292 8941 ft 178 kts 15°
2026-05-07 16:37 36.62656 -86.44737 8936 ft 178 kts 15°
2026-05-07 16:37 36.63809 -86.44182 8937 ft 178 kts 15°
2026-05-07 16:38 36.64959 -86.43621 8939 ft 177 kts 15°
2026-05-07 16:38 36.66113 -86.43072 8938 ft 178 kts 15°
2026-05-07 16:38 36.67268 -86.42518 8936 ft 178 kts 15°
2026-05-07 16:38 36.68423 -86.41959 8937 ft 178 kts 15°
2026-05-07 16:39 36.69185 -86.41590 8942 ft 177 kts 15°
2026-05-07 16:39 36.70335 -86.41037 8947 ft 178 kts 15°
2026-05-07 16:39 36.71490 -86.40480 8945 ft 179 kts 15°
2026-05-07 16:39 36.72620 -86.39828 8940 ft 182 kts 30°
2026-05-07 16:40 36.73482 -86.38657 8947 ft 185 kts 50°
2026-05-07 16:40 36.74251 -86.37370 8960 ft 184 kts 49°
2026-05-07 16:40 36.75035 -86.36101 8952 ft 185 kts 49°
2026-05-07 16:40 36.75817 -86.34830 8956 ft 185 kts 49°
2026-05-07 16:41 36.76597 -86.33557 8967 ft 184 kts 49°
2026-05-07 16:41 36.77376 -86.32283 8967 ft 185 kts 49°
2026-05-07 16:41 36.78158 -86.31009 8968 ft 184 kts 49°
2026-05-07 16:41 36.78938 -86.29737 8959 ft 185 kts 49°
2026-05-07 16:42 36.79718 -86.28460 8962 ft 185 kts 49°
2026-05-07 16:42 36.80500 -86.27187 8972 ft 185 kts 49°
2026-05-07 16:42 36.81279 -86.25913 8972 ft 185 kts 49°
2026-05-07 16:42 36.82059 -86.24636 8974 ft 186 kts 49°
2026-05-07 16:43 36.82841 -86.23354 8978 ft 186 kts 49°
2026-05-07 16:43 36.83627 -86.22073 8978 ft 185 kts 49°
2026-05-07 16:43 36.84409 -86.20795 8976 ft 186 kts 49°
2026-05-07 16:43 36.85196 -86.19507 8975 ft 187 kts 49°
2026-05-07 16:44 36.85984 -86.18214 8979 ft 187 kts 49°
2026-05-07 16:44 36.86773 -86.16922 8977 ft 187 kts 49°
2026-05-07 16:44 36.87559 -86.15629 8977 ft 187 kts 49°
2026-05-07 16:44 36.88346 -86.14340 8975 ft 186 kts 49°
2026-05-07 16:45 36.89131 -86.13054 8977 ft 186 kts 49°
2026-05-07 16:45 36.89915 -86.11768 8981 ft 186 kts 49°
2026-05-07 16:45 36.90697 -86.10482 8984 ft 186 kts 49°
2026-05-07 16:45 36.91479 -86.09201 8985 ft 186 kts 49°
2026-05-07 16:46 36.92263 -86.07914 8983 ft 187 kts 49°
2026-05-07 16:46 36.93047 -86.06620 8982 ft 184 kts 49°
2026-05-07 16:46 36.93824 -86.05345 8982 ft 184 kts 49°
2026-05-07 16:46 36.94602 -86.04064 8988 ft 186 kts 49°
2026-05-07 16:47 36.95385 -86.02774 8987 ft 186 kts 49°
2026-05-07 16:47 36.96167 -86.01490 8988 ft 186 kts 49°
2026-05-07 16:47 36.96949 -86.00201 8984 ft 186 kts 49°
2026-05-07 16:47 36.97730 -85.98910 8983 ft 186 kts 50°
2026-05-07 16:48 36.98514 -85.97617 8983 ft 186 kts 49°
2026-05-07 16:48 36.99304 -85.96332 8984 ft 186 kts 49°
2026-05-07 16:48 37.00086 -85.95031 8980 ft 188 kts 50°
2026-05-07 16:48 37.00871 -85.93734 8988 ft 187 kts 49°
2026-05-07 16:49 37.01654 -85.92448 8988 ft 189 kts 49°
2026-05-07 16:49 37.02454 -85.91122 8984 ft 188 kts 50°
2026-05-07 16:49 37.03230 -85.89840 8984 ft 187 kts 49°
2026-05-07 16:49 37.04015 -85.88544 8984 ft 187 kts 49°
2026-05-07 16:50 37.04800 -85.87240 8984 ft 187 kts 49°
2026-05-07 16:50 37.05588 -85.85940 8982 ft 187 kts 49°
2026-05-07 16:50 37.06378 -85.84639 8984 ft 188 kts 49°
2026-05-07 16:50 37.07165 -85.83336 8986 ft 187 kts 49°
2026-05-07 16:51 37.07949 -85.82034 8992 ft 187 kts 49°
2026-05-07 16:51 37.08735 -85.80728 8992 ft 188 kts 49°
2026-05-07 16:51 37.09529 -85.79425 8983 ft 189 kts 49°
2026-05-07 16:51 37.10316 -85.78114 8984 ft 188 kts 49°
2026-05-07 16:52 37.11102 -85.76809 8983 ft 187 kts 49°
2026-05-07 16:52 37.11885 -85.75508 8987 ft 187 kts 49°
2026-05-07 16:52 37.12672 -85.74206 8979 ft 187 kts 49°
2026-05-07 16:52 37.13457 -85.72903 8983 ft 187 kts 49°
2026-05-07 16:53 37.14240 -85.71597 8981 ft 188 kts 50°
2026-05-07 16:53 37.15025 -85.70291 8987 ft 188 kts 49°
2026-05-07 16:53 37.15804 -85.69001 8990 ft 186 kts 49°
2026-05-07 16:53 37.16590 -85.67697 8990 ft 187 kts 50°
2026-05-07 16:54 37.17372 -85.66396 8990 ft 187 kts 49°
2026-05-07 16:54 37.18153 -85.65096 8995 ft 187 kts 49°
2026-05-07 16:54 37.18938 -85.63786 8994 ft 188 kts 50°
2026-05-07 16:54 37.19723 -85.62475 8992 ft 188 kts 49°
2026-05-07 16:55 37.20507 -85.61171 8992 ft 187 kts 49°
2026-05-07 16:55 37.21292 -85.59864 8990 ft 188 kts 49°
2026-05-07 16:55 37.22076 -85.58558 8989 ft 187 kts 49°
2026-05-07 16:55 37.22854 -85.57259 9001 ft 186 kts 49°
2026-05-07 16:56 37.23632 -85.55964 9000 ft 186 kts 49°
2026-05-07 16:56 37.24409 -85.54661 8999 ft 186 kts 50°
2026-05-07 16:56 37.25965 -85.52067 9015 ft 186 kts 49°
2026-05-07 16:57 37.26742 -85.50770 9009 ft 185 kts 49°
2026-05-07 16:57 37.27514 -85.49476 9005 ft 185 kts 49°
2026-05-07 16:57 37.28287 -85.48181 9011 ft 186 kts 49°
2026-05-07 16:57 37.29063 -85.46883 9010 ft 185 kts 49°
2026-05-07 16:58 37.29838 -85.45587 9011 ft 186 kts 50°
2026-05-07 16:58 37.30617 -85.44287 9012 ft 187 kts 50°
2026-05-07 16:58 37.31398 -85.42977 9006 ft 187 kts 50°
2026-05-07 16:58 37.32174 -85.41674 9019 ft 186 kts 50°
2026-05-07 16:59 37.32949 -85.40372 9014 ft 186 kts 50°
2026-05-07 16:59 37.33727 -85.39069 9024 ft 187 kts 50°
2026-05-07 16:59 37.34511 -85.37756 9020 ft 188 kts 50°
2026-05-07 16:59 37.35291 -85.36446 9021 ft 187 kts 50°
2026-05-07 17:00 37.36069 -85.35143 9021 ft 186 kts 50°
2026-05-07 17:00 37.36842 -85.33835 9014 ft 186 kts 49°
2026-05-07 17:00 37.37620 -85.32538 9020 ft 187 kts 50°
2026-05-07 17:00 37.38401 -85.31227 9021 ft 187 kts 50°
2026-05-07 17:01 37.39179 -85.29919 9021 ft 187 kts 50°
2026-05-07 17:01 37.39961 -85.28608 9020 ft 187 kts 50°
2026-05-07 17:01 37.40734 -85.27292 9020 ft 187 kts 50°
2026-05-07 17:01 37.41520 -85.25984 9024 ft 188 kts 49°
2026-05-07 17:02 37.42303 -85.24662 9018 ft 188 kts 50°
2026-05-07 17:02 37.43077 -85.23343 9021 ft 187 kts 50°
2026-05-07 17:02 37.43849 -85.22047 9016 ft 187 kts 50°
2026-05-07 17:02 37.44626 -85.20737 9014 ft 187 kts 50°
2026-05-07 17:03 37.45402 -85.19426 9015 ft 187 kts 50°
2026-05-07 17:03 37.46176 -85.18119 9011 ft 186 kts 50°
2026-05-07 17:03 37.46952 -85.16814 9009 ft 186 kts 50°
2026-05-07 17:03 37.47726 -85.15506 9011 ft 186 kts 50°
2026-05-07 17:04 37.48500 -85.14198 9001 ft 186 kts 50°
2026-05-07 17:04 37.49280 -85.12887 8998 ft 188 kts 50°
2026-05-07 17:04 37.50058 -85.11566 8998 ft 187 kts 50°
2026-05-07 17:04 37.50830 -85.10252 9000 ft 186 kts 50°
2026-05-07 17:05 37.51606 -85.08944 9000 ft 186 kts 50°
2026-05-07 17:05 37.52380 -85.07639 9001 ft 186 kts 50°
2026-05-07 17:05 37.53151 -85.06327 9000 ft 186 kts 50°
2026-05-07 17:05 37.53921 -85.05012 8996 ft 186 kts 50°
2026-05-07 17:06 37.54695 -85.03705 8995 ft 186 kts 50°
2026-05-07 17:06 37.55470 -85.02396 8999 ft 187 kts 50°
2026-05-07 17:06 37.56250 -85.01075 8990 ft 187 kts 50°
2026-05-07 17:06 37.57022 -84.99761 8991 ft 187 kts 50°
2026-05-07 17:07 37.57794 -84.98444 8987 ft 187 kts 50°
2026-05-07 17:07 37.58564 -84.97130 8985 ft 186 kts 50°
2026-05-07 17:07 37.59337 -84.95829 8981 ft 185 kts 50°
2026-05-07 17:07 37.60109 -84.94526 8980 ft 185 kts 50°
2026-05-07 17:08 37.60876 -84.93216 8978 ft 186 kts 50°
2026-05-07 17:08 37.61645 -84.91907 8981 ft 186 kts 50°
2026-05-07 17:08 37.62414 -84.90594 8980 ft 186 kts 50°
2026-05-07 17:08 37.63188 -84.89285 8981 ft 186 kts 50°
2026-05-07 17:09 37.63945 -84.87993 8982 ft 186 kts 51°
2026-05-07 17:09 37.64711 -84.86683 8984 ft 186 kts 50°
2026-05-07 17:09 37.65480 -84.85375 8980 ft 186 kts 50°
2026-05-07 17:09 37.66250 -84.84064 8980 ft 186 kts 50°
2026-05-07 17:10 37.67021 -84.82748 8980 ft 186 kts 50°
2026-05-07 17:10 37.67791 -84.81434 8978 ft 186 kts 50°
2026-05-07 17:10 37.68557 -84.80127 8978 ft 185 kts 50°
2026-05-07 17:10 37.69323 -84.78817 8980 ft 186 kts 50°
2026-05-07 17:11 37.70091 -84.77506 8978 ft 185 kts 50°
2026-05-07 17:11 37.70856 -84.76201 8979 ft 185 kts 50°
2026-05-07 17:11 37.71620 -84.74891 8978 ft 185 kts 50°
2026-05-07 17:11 37.72381 -84.73585 8979 ft 184 kts 50°
2026-05-07 17:12 37.73145 -84.72284 8979 ft 184 kts 50°
2026-05-07 17:12 37.73904 -84.70979 8978 ft 185 kts 50°
2026-05-07 17:12 37.74670 -84.69672 8975 ft 185 kts 50°
2026-05-07 17:12 37.75435 -84.68361 8977 ft 186 kts 50°
2026-05-07 17:13 37.76201 -84.67050 8978 ft 185 kts 50°
2026-05-07 17:13 37.76967 -84.65736 8976 ft 186 kts 50°
2026-05-07 17:13 37.77732 -84.64422 8975 ft 186 kts 50°
2026-05-07 17:13 37.78499 -84.63106 8978 ft 186 kts 50°
2026-05-07 17:14 37.79266 -84.61788 8976 ft 185 kts 51°
2026-05-07 17:14 37.80030 -84.60479 8977 ft 185 kts 50°
2026-05-07 17:14 37.80793 -84.59171 8976 ft 185 kts 51°
2026-05-07 17:14 37.81554 -84.57861 8971 ft 184 kts 51°
2026-05-07 17:15 37.82313 -84.56554 8974 ft 185 kts 51°
2026-05-07 17:15 37.83071 -84.55249 8968 ft 183 kts 51°
2026-05-07 17:15 37.83827 -84.53948 8971 ft 184 kts 51°
2026-05-07 17:15 37.84583 -84.52648 8973 ft 184 kts 50°
2026-05-07 17:16 37.85343 -84.51338 8977 ft 185 kts 51°
2026-05-07 17:16 37.86108 -84.50022 8972 ft 185 kts 51°
2026-05-07 17:16 37.86870 -84.48709 8977 ft 186 kts 51°
2026-05-07 17:16 37.87636 -84.47393 8976 ft 186 kts 51°
2026-05-07 17:17 37.88402 -84.46072 8977 ft 186 kts 51°
2026-05-07 17:17 37.89166 -84.44747 8976 ft 186 kts 51°
2026-05-07 17:17 37.89930 -84.43427 8970 ft 185 kts 51°
2026-05-07 17:17 37.90691 -84.42114 8971 ft 185 kts 51°
2026-05-07 17:18 37.91455 -84.40797 8975 ft 186 kts 50°
2026-05-07 17:18 37.92222 -84.39477 8967 ft 186 kts 51°
2026-05-07 17:18 37.92980 -84.38157 8966 ft 185 kts 51°
2026-05-07 17:18 37.93741 -84.36845 8974 ft 185 kts 51°
2026-05-07 17:19 37.94501 -84.35529 8977 ft 185 kts 51°
2026-05-07 17:19 37.95258 -84.34213 8977 ft 185 kts 51°
2026-05-07 17:19 37.96024 -84.32892 8976 ft 186 kts 51°
2026-05-07 17:19 37.96780 -84.31590 8978 ft 186 kts 51°
2026-05-07 17:20 37.97541 -84.30261 8969 ft 186 kts 51°
2026-05-07 17:20 37.98299 -84.28937 8966 ft 185 kts 51°
2026-05-07 17:20 37.99062 -84.27625 8961 ft 184 kts 51°
2026-05-07 17:20 37.99821 -84.26314 8960 ft 185 kts 51°
2026-05-07 17:21 38.00578 -84.25001 8963 ft 184 kts 51°
2026-05-07 17:21 38.01330 -84.23689 8957 ft 183 kts 51°
2026-05-07 17:21 38.02081 -84.22379 8964 ft 185 kts 51°
2026-05-07 17:21 38.02841 -84.21067 8953 ft 184 kts 51°
2026-05-07 17:22 38.03591 -84.19757 8957 ft 183 kts 51°
2026-05-07 17:22 38.04345 -84.18446 8955 ft 185 kts 51°
2026-05-07 17:22 38.05098 -84.17135 8963 ft 184 kts 51°
2026-05-07 17:22 38.05849 -84.15821 8966 ft 184 kts 51°
2026-05-07 17:23 38.06603 -84.14514 8963 ft 183 kts 51°
2026-05-07 17:23 38.07363 -84.13200 8960 ft 185 kts 51°
2026-05-07 17:23 38.08118 -84.11879 8962 ft 185 kts 51°
2026-05-07 17:23 38.08874 -84.10561 8961 ft 184 kts 51°
2026-05-07 17:24 38.09624 -84.09250 8964 ft 183 kts 51°
2026-05-07 17:24 38.10381 -84.07935 8964 ft 185 kts 51°
2026-05-07 17:24 38.11138 -84.06610 8966 ft 185 kts 51°
2026-05-07 17:24 38.11638 -84.05734 8963 ft 184 kts 51°
2026-05-07 17:25 38.12389 -84.04420 8962 ft 184 kts 51°
2026-05-07 17:25 38.13139 -84.03112 8964 ft 183 kts 51°
2026-05-07 17:25 38.14131 -84.01379 8964 ft 183 kts 51°
2026-05-07 17:25 38.14637 -84.00494 8964 ft 183 kts 51°
2026-05-07 17:26 38.15626 -83.98760 8961 ft 183 kts 51°
2026-05-07 17:26 38.16374 -83.97452 8959 ft 183 kts 51°
2026-05-07 17:26 38.17120 -83.96146 8959 ft 183 kts 51°
2026-05-07 17:26 38.17627 -83.95258 8959 ft 183 kts 51°
2026-05-07 17:27 38.18374 -83.93949 8961 ft 183 kts 51°
2026-05-07 17:27 38.19111 -83.92654 8959 ft 183 kts 51°
2026-05-07 17:27 38.19866 -83.91330 8966 ft 183 kts 51°
2026-05-07 17:27 38.20611 -83.90034 8980 ft 180 kts 51°
2026-05-07 17:28 38.21343 -83.88741 8979 ft 180 kts 51°
2026-05-07 17:28 38.22080 -83.87448 8982 ft 181 kts 51°
2026-05-07 17:28 38.22807 -83.86174 8978 ft 181 kts 51°
2026-05-07 17:28 38.23544 -83.84870 8979 ft 180 kts 51°
2026-05-07 17:29 38.24278 -83.83583 8978 ft 179 kts 51°
2026-05-07 17:29 38.25020 -83.82280 8981 ft 180 kts 51°
2026-05-07 17:29 38.25747 -83.81001 8985 ft 180 kts 51°
2026-05-07 17:29 38.26488 -83.79700 8982 ft 183 kts 52°
2026-05-07 17:30 38.27229 -83.78388 8979 ft 182 kts 51°
2026-05-07 17:30 38.27972 -83.77087 8978 ft 181 kts 51°
2026-05-07 17:30 38.28708 -83.75786 8977 ft 181 kts 51°
2026-05-07 17:30 38.29448 -83.74482 8977 ft 182 kts 51°
2026-05-07 17:31 38.30186 -83.73177 8975 ft 181 kts 51°
2026-05-07 17:31 38.30923 -83.71878 8975 ft 181 kts 51°
2026-05-07 17:31 38.31659 -83.70580 8975 ft 181 kts 51°
2026-05-07 17:31 38.32393 -83.69283 8977 ft 181 kts 51°
2026-05-07 17:32 38.33127 -83.67987 8976 ft 180 kts 51°
2026-05-07 17:32 38.33853 -83.66697 8981 ft 182 kts 51°
2026-05-07 17:32 38.34594 -83.65392 8976 ft 181 kts 51°
2026-05-07 17:32 38.35332 -83.64094 8977 ft 181 kts 51°
2026-05-07 17:33 38.36066 -83.62802 8974 ft 180 kts 51°
2026-05-07 17:33 38.36795 -83.61503 8975 ft 180 kts 51°
2026-05-07 17:33 38.37526 -83.60204 8972 ft 180 kts 51°
2026-05-07 17:33 38.38259 -83.58906 8971 ft 181 kts 51°
2026-05-07 17:34 38.38992 -83.57607 8971 ft 180 kts 51°
2026-05-07 17:34 38.39726 -83.56311 8970 ft 180 kts 51°
2026-05-07 17:34 38.40457 -83.55014 8975 ft 181 kts 51°
2026-05-07 17:34 38.41197 -83.53700 8969 ft 181 kts 51°
2026-05-07 17:35 38.41934 -83.52398 8972 ft 181 kts 51°
2026-05-07 17:35 38.42667 -83.51096 8976 ft 181 kts 51°
2026-05-07 17:35 38.43393 -83.49789 8973 ft 180 kts 51°
2026-05-07 17:35 38.44128 -83.48493 8972 ft 181 kts 51°
2026-05-07 17:36 38.44865 -83.47187 8972 ft 181 kts 51°
2026-05-07 17:36 38.45599 -83.45879 8970 ft 181 kts 51°
2026-05-07 17:36 38.46333 -83.44573 8971 ft 181 kts 51°
2026-05-07 17:36 38.47065 -83.43268 8973 ft 180 kts 51°
2026-05-07 17:37 38.47794 -83.41968 8968 ft 180 kts 51°
2026-05-07 17:37 38.48522 -83.40669 8966 ft 180 kts 51°
2026-05-07 17:37 38.49252 -83.39373 8971 ft 180 kts 51°
2026-05-07 17:37 38.49983 -83.38073 8971 ft 180 kts 51°
2026-05-07 17:38 38.50714 -83.36770 8972 ft 181 kts 51°
2026-05-07 17:38 38.51450 -83.35464 8974 ft 182 kts 51°
2026-05-07 17:38 38.52183 -83.34154 8971 ft 181 kts 52°
2026-05-07 17:38 38.52911 -83.32840 8973 ft 181 kts 51°
2026-05-07 17:39 38.53644 -83.31533 8972 ft 181 kts 51°
2026-05-07 17:39 38.54377 -83.30227 8976 ft 181 kts 51°
2026-05-07 17:39 38.55115 -83.28910 8963 ft 182 kts 51°
2026-05-07 17:39 38.55849 -83.27594 8964 ft 182 kts 51°
2026-05-07 17:40 38.56585 -83.26269 8951 ft 184 kts 51°
2026-05-07 17:40 38.57324 -83.24947 8960 ft 182 kts 51°
2026-05-07 17:40 38.58063 -83.23637 8958 ft 181 kts 51°
2026-05-07 17:40 38.58795 -83.22329 8960 ft 181 kts 51°
2026-05-07 17:41 38.59524 -83.21018 8953 ft 181 kts 51°
2026-05-07 17:41 38.60242 -83.19727 8949 ft 181 kts 51°
2026-05-07 17:41 38.60978 -83.18408 8956 ft 180 kts 51°
2026-05-07 17:41 38.61706 -83.17089 8962 ft 183 kts 51°
2026-05-07 17:42 38.62449 -83.15768 8969 ft 184 kts 51°
2026-05-07 17:42 38.63186 -83.14445 8966 ft 186 kts 51°
2026-05-07 17:42 38.63948 -83.13106 8962 ft 187 kts 51°
2026-05-07 17:42 38.64686 -83.11756 8970 ft 184 kts 52°
2026-05-07 17:43 38.65419 -83.10405 8960 ft 184 kts 51°
2026-05-07 17:43 38.66167 -83.09077 8958 ft 183 kts 51°
2026-05-07 17:43 38.66905 -83.07760 8949 ft 182 kts 51°
2026-05-07 17:43 38.67644 -83.06429 8948 ft 182 kts 51°
2026-05-07 17:44 38.68374 -83.05112 8950 ft 181 kts 51°
2026-05-07 17:44 38.69105 -83.03796 8949 ft 181 kts 51°
2026-05-07 17:44 38.69834 -83.02484 8957 ft 181 kts 51°
2026-05-07 17:44 38.70563 -83.01168 8951 ft 181 kts 51°
2026-05-07 17:45 38.71290 -82.99858 8955 ft 180 kts 51°
2026-05-07 17:45 38.72015 -82.98549 8951 ft 180 kts 51°
2026-05-07 17:45 38.72740 -82.97237 8950 ft 181 kts 51°
2026-05-07 17:45 38.73469 -82.95921 8952 ft 181 kts 51°
2026-05-07 17:46 38.74198 -82.94606 8959 ft 181 kts 51°
2026-05-07 17:46 38.74924 -82.93281 8956 ft 183 kts 51°
2026-05-07 17:46 38.75667 -82.91949 8948 ft 184 kts 51°
2026-05-07 17:46 38.76406 -82.90619 8949 ft 183 kts 51°
2026-05-07 17:47 38.77135 -82.89295 8948 ft 182 kts 51°
2026-05-07 17:47 38.77868 -82.87970 8946 ft 182 kts 51°
2026-05-07 17:47 38.78599 -82.86645 8944 ft 182 kts 51°
2026-05-07 17:47 38.79330 -82.85314 8947 ft 182 kts 51°
2026-05-07 17:48 38.80066 -82.83990 8945 ft 183 kts 51°
2026-05-07 17:48 38.80801 -82.82657 8948 ft 183 kts 51°
2026-05-07 17:48 38.81539 -82.81314 8944 ft 184 kts 51°
2026-05-07 17:48 38.82276 -82.79976 8945 ft 184 kts 51°
2026-05-07 17:49 38.83013 -82.78640 8944 ft 183 kts 51°
2026-05-07 17:49 38.83738 -82.77322 8943 ft 184 kts 51°
2026-05-07 17:49 38.84475 -82.75983 8944 ft 184 kts 51°
2026-05-07 17:49 38.85215 -82.74641 8941 ft 184 kts 51°
2026-05-07 17:50 38.85950 -82.73301 8938 ft 184 kts 51°
2026-05-07 17:50 38.86682 -82.71965 8938 ft 183 kts 51°
2026-05-07 17:50 38.87415 -82.70631 8936 ft 182 kts 51°
2026-05-07 17:50 38.88147 -82.69303 8940 ft 183 kts 51°
2026-05-07 17:51 38.88881 -82.67968 8937 ft 183 kts 52°
2026-05-07 17:51 38.89611 -82.66633 8938 ft 183 kts 52°
2026-05-07 17:51 38.90342 -82.65300 8936 ft 182 kts 51°
2026-05-07 17:51 38.91071 -82.63969 8935 ft 182 kts 51°
2026-05-07 17:52 38.91800 -82.62642 8935 ft 182 kts 51°
2026-05-07 17:52 38.92524 -82.61317 8935 ft 181 kts 52°
2026-05-07 17:52 38.93254 -82.59991 8933 ft 182 kts 51°
2026-05-07 17:52 38.93982 -82.58656 8936 ft 182 kts 52°
2026-05-07 17:53 38.94712 -82.57321 8937 ft 182 kts 51°
2026-05-07 17:53 38.95441 -82.55990 8938 ft 182 kts 51°
2026-05-07 17:53 38.96170 -82.54660 8934 ft 182 kts 52°
2026-05-07 17:53 38.96897 -82.53325 8934 ft 182 kts 52°
2026-05-07 17:54 38.97625 -82.51993 8936 ft 182 kts 51°
2026-05-07 17:54 38.98355 -82.50658 8936 ft 183 kts 52°
2026-05-07 17:54 38.99083 -82.49320 8933 ft 183 kts 52°
2026-05-07 17:54 38.99813 -82.47980 8933 ft 182 kts 52°
2026-05-07 17:55 39.00539 -82.46645 8932 ft 182 kts 51°
2026-05-07 17:55 39.01273 -82.45311 8930 ft 183 kts 51°
2026-05-07 17:55 39.02001 -82.43969 8931 ft 183 kts 52°
2026-05-07 17:55 39.02730 -82.42633 8933 ft 182 kts 52°
2026-05-07 17:56 39.03457 -82.41297 8934 ft 182 kts 52°
2026-05-07 17:56 39.04184 -82.39961 8934 ft 182 kts 52°
2026-05-07 17:56 39.04900 -82.38643 8931 ft 182 kts 52°
2026-05-07 17:56 39.05639 -82.37286 8929 ft 182 kts 52°
2026-05-07 17:57 39.06356 -82.35965 8927 ft 183 kts 52°
2026-05-07 17:57 39.06846 -82.35062 8926 ft 183 kts 52°
2026-05-07 17:57 39.07810 -82.33290 8930 ft 182 kts 52°
2026-05-07 17:57 39.08536 -82.31949 8928 ft 182 kts 52°
2026-05-07 17:58 39.09265 -82.30614 8929 ft 182 kts 52°
2026-05-07 17:58 39.09989 -82.29276 8930 ft 182 kts 52°
2026-05-07 17:58 39.10710 -82.27940 8927 ft 182 kts 52°
2026-05-07 17:58 39.11435 -82.26603 8921 ft 182 kts 52°
2026-05-07 17:59 39.12162 -82.25263 8920 ft 183 kts 52°
2026-05-07 17:59 39.12891 -82.23917 8915 ft 183 kts 52°
2026-05-07 17:59 39.13615 -82.22569 8912 ft 183 kts 52°
2026-05-07 17:59 39.14344 -82.21231 8912 ft 182 kts 52°
2026-05-07 18:00 39.15071 -82.19892 8909 ft 182 kts 52°
2026-05-07 18:00 39.15795 -82.18550 8911 ft 183 kts 52°
2026-05-07 18:00 39.16526 -82.17199 8910 ft 184 kts 52°
2026-05-07 18:00 39.17257 -82.15847 8910 ft 183 kts 52°
2026-05-07 18:01 39.17986 -82.14500 8913 ft 184 kts 52°
2026-05-07 18:01 39.18712 -82.13144 8911 ft 183 kts 52°
2026-05-07 18:01 39.19438 -82.11797 8910 ft 183 kts 52°
2026-05-07 18:01 39.20164 -82.10454 8910 ft 182 kts 52°
2026-05-07 18:02 39.21619 -82.07757 8913 ft 183 kts 52°
2026-05-07 18:02 39.22344 -82.06408 8917 ft 183 kts 52°
2026-05-07 18:02 39.23068 -82.05057 8910 ft 183 kts 52°
2026-05-07 18:03 39.23799 -82.03712 8913 ft 183 kts 52°
2026-05-07 18:03 39.24527 -82.02364 8910 ft 183 kts 52°
2026-05-07 18:03 39.25246 -82.01013 8908 ft 183 kts 52°
2026-05-07 18:03 39.25971 -81.99667 8909 ft 182 kts 52°
2026-05-07 18:04 39.26692 -81.98323 8908 ft 182 kts 52°
2026-05-07 18:04 39.27416 -81.96976 8910 ft 183 kts 52°
2026-05-07 18:04 39.28143 -81.95622 8906 ft 184 kts 52°
2026-05-07 18:04 39.28869 -81.94268 8904 ft 183 kts 52°
2026-05-07 18:05 39.29594 -81.92916 8906 ft 183 kts 52°
2026-05-07 18:05 39.30320 -81.91560 8905 ft 183 kts 52°
2026-05-07 18:05 39.31036 -81.90224 8905 ft 183 kts 52°
2026-05-07 18:05 39.31761 -81.88872 8905 ft 183 kts 52°
2026-05-07 18:06 39.32487 -81.87517 8905 ft 184 kts 52°
2026-05-07 18:06 39.33211 -81.86163 8905 ft 183 kts 52°
2026-05-07 18:06 39.33938 -81.84802 8906 ft 183 kts 52°
2026-05-07 18:06 39.34661 -81.83450 8905 ft 183 kts 52°
2026-05-07 18:07 39.35386 -81.82095 8906 ft 183 kts 52°
2026-05-07 18:07 39.36108 -81.80742 8906 ft 183 kts 52°
2026-05-07 18:07 39.36827 -81.79392 8903 ft 183 kts 52°
2026-05-07 18:07 39.37544 -81.78051 8903 ft 183 kts 52°
2026-05-07 18:08 39.38275 -81.76684 8902 ft 183 kts 52°
2026-05-07 18:08 39.38992 -81.75339 8904 ft 183 kts 52°
2026-05-07 18:08 39.39727 -81.73964 8902 ft 183 kts 52°
2026-05-07 18:08 39.40449 -81.72605 8904 ft 183 kts 52°
2026-05-07 18:09 39.41161 -81.71273 8907 ft 182 kts 51°
2026-05-07 18:09 39.41875 -81.69929 8906 ft 180 kts 52°
2026-05-07 18:09 39.42584 -81.68594 8904 ft 180 kts 52°
2026-05-07 18:09 39.43293 -81.67256 8901 ft 180 kts 52°
2026-05-07 18:10 39.44006 -81.65921 8904 ft 181 kts 51°
2026-05-07 18:10 39.44721 -81.64581 8906 ft 181 kts 52°
2026-05-07 18:10 39.45421 -81.63263 8902 ft 181 kts 52°
2026-05-07 18:10 39.46141 -81.61905 8968 ft 177 kts 52°
2026-05-07 18:11 39.46838 -81.60593 8990 ft 177 kts 52°
2026-05-07 18:11 39.47300 -81.59720 8992 ft 178 kts 52°
2026-05-07 18:11 39.48244 -81.57944 8988 ft 179 kts 52°
2026-05-07 18:11 39.48946 -81.56615 8990 ft 180 kts 52°
2026-05-07 18:12 39.49657 -81.55275 8994 ft 180 kts 52°
2026-05-07 18:12 39.50126 -81.54393 8995 ft 180 kts 52°
2026-05-07 18:12 39.50835 -81.53052 8992 ft 180 kts 52°
2026-05-07 18:12 39.51543 -81.51714 8992 ft 180 kts 52°
2026-05-07 18:13 39.52479 -81.49946 8999 ft 180 kts 52°
2026-05-07 18:13 39.53188 -81.48606 8992 ft 180 kts 52°
2026-05-07 18:13 39.53666 -81.47703 8991 ft 180 kts 52°
2026-05-07 18:13 39.54600 -81.45933 8989 ft 180 kts 52°
2026-05-07 18:14 39.55076 -81.45033 8992 ft 179 kts 52°
2026-05-07 18:14 39.55779 -81.43702 8990 ft 179 kts 52°
2026-05-07 18:14 39.56483 -81.42370 8988 ft 179 kts 52°
2026-05-07 18:14 39.57187 -81.41031 8987 ft 180 kts 52°
2026-05-07 18:15 39.57885 -81.39710 8992 ft 180 kts 52°
2026-05-07 18:15 39.58592 -81.38370 8989 ft 180 kts 52°
2026-05-07 18:15 39.59296 -81.37032 8989 ft 180 kts 52°
2026-05-07 18:15 39.60005 -81.35691 8992 ft 180 kts 52°
2026-05-07 18:16 39.60712 -81.34345 8992 ft 181 kts 52°
2026-05-07 18:16 39.61419 -81.33000 8994 ft 180 kts 52°
2026-05-07 18:16 39.62127 -81.31658 8992 ft 180 kts 52°
2026-05-07 18:16 39.62834 -81.30310 8991 ft 181 kts 52°
2026-05-07 18:17 39.63544 -81.28962 8988 ft 182 kts 52°
2026-05-07 18:17 39.64258 -81.27606 8987 ft 182 kts 52°
2026-05-07 18:17 39.64966 -81.26250 8987 ft 182 kts 52°
2026-05-07 18:17 39.65679 -81.24895 8986 ft 181 kts 52°
2026-05-07 18:18 39.66389 -81.23539 8987 ft 182 kts 52°
2026-05-07 18:18 39.67101 -81.22184 8987 ft 182 kts 52°
2026-05-07 18:18 39.67811 -81.20830 8984 ft 181 kts 52°
2026-05-07 18:18 39.68514 -81.19490 8983 ft 180 kts 52°
2026-05-07 18:19 39.69217 -81.18145 8984 ft 179 kts 52°
2026-05-07 18:19 39.69920 -81.16804 8983 ft 181 kts 52°
2026-05-07 18:19 39.70629 -81.15448 8983 ft 182 kts 52°
2026-05-07 18:19 39.71345 -81.14086 8984 ft 182 kts 52°
2026-05-07 18:20 39.72053 -81.12727 8987 ft 181 kts 52°
2026-05-07 18:20 39.72766 -81.11358 8989 ft 185 kts 52°
2026-05-07 18:20 39.73488 -81.09981 8988 ft 185 kts 52°
2026-05-07 18:20 39.74213 -81.08592 8991 ft 185 kts 52°
2026-05-07 18:21 39.74937 -81.07215 8988 ft 185 kts 52°
2026-05-07 18:21 39.75657 -81.05838 8987 ft 185 kts 52°
2026-05-07 18:21 39.76374 -81.04447 8987 ft 185 kts 52°
2026-05-07 18:21 39.77093 -81.03072 8986 ft 183 kts 52°
2026-05-07 18:22 39.77795 -81.01725 8985 ft 182 kts 52°
2026-05-07 18:22 39.78278 -81.00803 8986 ft 184 kts 52°
2026-05-07 18:22 39.79220 -80.98983 8985 ft 183 kts 52°
2026-05-07 18:22 39.79939 -80.97608 8980 ft 185 kts 52°
2026-05-07 18:23 39.80658 -80.96217 8981 ft 184 kts 52°
2026-05-07 18:23 39.81380 -80.94840 8980 ft 184 kts 52°
2026-05-07 18:23 39.82095 -80.93464 8981 ft 184 kts 52°
2026-05-07 18:23 39.82813 -80.92075 8982 ft 185 kts 52°
2026-05-07 18:24 39.83531 -80.90699 8983 ft 182 kts 52°
2026-05-07 18:24 39.84242 -80.89330 8980 ft 183 kts 52°
2026-05-07 18:24 39.84946 -80.87965 8981 ft 181 kts 52°
2026-05-07 18:24 39.85655 -80.86597 8979 ft 184 kts 52°
2026-05-07 18:25 39.86372 -80.85216 8979 ft 185 kts 52°
2026-05-07 18:25 39.87093 -80.83826 8979 ft 185 kts 52°
2026-05-07 18:25 39.87809 -80.82437 8977 ft 185 kts 52°
2026-05-07 18:25 39.88533 -80.81052 8977 ft 184 kts 51°
2026-05-07 18:26 39.89244 -80.79673 8974 ft 184 kts 52°
2026-05-07 18:26 39.89957 -80.78288 8979 ft 184 kts 52°
2026-05-07 18:26 39.90674 -80.76913 8977 ft 182 kts 51°
2026-05-07 18:26 39.91382 -80.75543 8976 ft 182 kts 52°
2026-05-07 18:27 39.92089 -80.74171 8976 ft 184 kts 52°
2026-05-07 18:27 39.92795 -80.72798 8977 ft 185 kts 52°
2026-05-07 18:27 39.93522 -80.71387 8975 ft 184 kts 52°
2026-05-07 18:27 39.94224 -80.70030 8974 ft 182 kts 52°
2026-05-07 18:28 39.94937 -80.68650 8967 ft 183 kts 52°
2026-05-07 18:28 39.95647 -80.67265 8969 ft 184 kts 52°
2026-05-07 18:28 39.96365 -80.65886 8970 ft 184 kts 52°
2026-05-07 18:28 39.97079 -80.64498 8966 ft 184 kts 52°
2026-05-07 18:29 39.97784 -80.63117 8966 ft 183 kts 52°
2026-05-07 18:29 39.98489 -80.61753 8964 ft 182 kts 52°
2026-05-07 18:29 39.99197 -80.60383 8967 ft 182 kts 52°
2026-05-07 18:29 39.99906 -80.59003 8964 ft 183 kts 52°
2026-05-07 18:30 40.00603 -80.57629 8962 ft 181 kts 52°
2026-05-07 18:30 40.01308 -80.56263 8962 ft 184 kts 52°
2026-05-07 18:30 40.02026 -80.54880 8961 ft 183 kts 52°
2026-05-07 18:30 40.02736 -80.53498 8962 ft 184 kts 52°
2026-05-07 18:31 40.03450 -80.52103 8968 ft 185 kts 52°
2026-05-07 18:31 40.04164 -80.50707 8964 ft 185 kts 52°
2026-05-07 18:31 40.04880 -80.49309 8962 ft 185 kts 52°
2026-05-07 18:31 40.05598 -80.47901 8963 ft 187 kts 52°
2026-05-07 18:32 40.06320 -80.46497 8971 ft 185 kts 52°
2026-05-07 18:32 40.07040 -80.45095 8966 ft 186 kts 52°
2026-05-07 18:32 40.07757 -80.43689 8972 ft 186 kts 52°
2026-05-07 18:32 40.08468 -80.42298 8970 ft 182 kts 52°
2026-05-07 18:33 40.09177 -80.40917 8971 ft 183 kts 52°
2026-05-07 18:33 40.09889 -80.39522 8970 ft 185 kts 52°
2026-05-07 18:33 40.10598 -80.38132 8972 ft 183 kts 52°
2026-05-07 18:33 40.11299 -80.36754 8979 ft 182 kts 52°
2026-05-07 18:34 40.12005 -80.35367 8981 ft 185 kts 52°
2026-05-07 18:34 40.12724 -80.33963 8980 ft 185 kts 52°
2026-05-07 18:34 40.13426 -80.32582 8982 ft 184 kts 52°
2026-05-07 18:34 40.14150 -80.31168 8984 ft 185 kts 52°
2026-05-07 18:35 40.14848 -80.29786 8980 ft 183 kts 52°
2026-05-07 18:35 40.15559 -80.28401 8980 ft 185 kts 52°
2026-05-07 18:35 40.16273 -80.27002 8981 ft 185 kts 52°
2026-05-07 18:35 40.16983 -80.25600 8979 ft 183 kts 52°
2026-05-07 18:36 40.17694 -80.24205 8982 ft 185 kts 52°
2026-05-07 18:36 40.18405 -80.22797 8982 ft 186 kts 52°
2026-05-07 18:36 40.19138 -80.21367 8765 ft 191 kts 52°
2026-05-07 18:36 40.19876 -80.19910 8511 ft 192 kts 53°
2026-05-07 18:37 40.20610 -80.18459 8263 ft 191 kts 52°
2026-05-07 18:37 40.21350 -80.17002 8014 ft 192 kts 52°
2026-05-07 18:37 40.22084 -80.15553 7763 ft 191 kts 53°
2026-05-07 18:37 40.22816 -80.14108 7516 ft 189 kts 52°
2026-05-07 18:38 40.23544 -80.12677 7266 ft 190 kts 52°
2026-05-07 18:38 40.24276 -80.11236 7019 ft 190 kts 52°
2026-05-07 18:38 40.25005 -80.09797 6767 ft 189 kts 52°
2026-05-07 18:38 40.25731 -80.08362 6517 ft 189 kts 52°
2026-05-07 18:39 40.26455 -80.06932 6271 ft 188 kts 52°
2026-05-07 18:39 40.27277 -80.05618 6017 ft 184 kts 34°
2026-05-07 18:39 40.28386 -80.04861 5766 ft 177 kts 11°
2026-05-07 18:39 40.29564 -80.04695 5520 ft 170 kts 350°
2026-05-07 18:40 40.30704 -80.05022 5274 ft 166 kts 340°
2026-05-07 18:40 40.31808 -80.05374 5021 ft 162 kts 342°
2026-05-07 18:40 40.32895 -80.05712 4764 ft 159 kts 342°
2026-05-07 18:40 40.33967 -80.06052 4512 ft 158 kts 341°
2026-05-07 18:41 40.35032 -80.06403 4256 ft 158 kts 342°
2026-05-07 18:41 40.36101 -80.06753 4008 ft 158 kts 340°
2026-05-07 18:41 40.37106 -80.07311 3760 ft 157 kts 331°
2026-05-07 18:41 40.37989 -80.08119 3514 ft 156 kts 316°
2026-05-07 18:42 40.38794 -80.09066 3269 ft 156 kts 315°
2026-05-07 18:42 40.39589 -80.10036 3021 ft 157 kts 314°
2026-05-07 18:42 40.40378 -80.11019 2764 ft 156 kts 314°
2026-05-07 18:42 40.41152 -80.11994 2525 ft 153 kts 315°
2026-05-07 18:43 40.41895 -80.12906 2501 ft 141 kts 314°
2026-05-07 18:43 40.42596 -80.13774 2493 ft 136 kts 315°
2026-05-07 18:43 40.43250 -80.14572 2424 ft 120 kts 315°
2026-05-07 18:43 40.43809 -80.15267 2279 ft 106 kts 313°
2026-05-07 18:44 40.44296 -80.15884 2147 ft 94 kts 313°
2026-05-07 18:44 40.44775 -80.16487 2025 ft 99 kts 312°
2026-05-07 18:44 40.45272 -80.17128 1892 ft 101 kts 312°
2026-05-07 18:44 40.45778 -80.17781 1746 ft 102 kts 313°
2026-05-07 18:45 40.46276 -80.18382 1631 ft 89 kts 313°
2026-05-07 18:45 40.46702 -80.18927 1514 ft 82 kts 311°
2026-05-07 18:45 40.47094 -80.19432 1450 ft 75 kts 314°
2026-05-07 18:45 40.47508 -80.19842 1403 ft 71 kts 315°
2026-05-07 18:46 40.47875 -80.20334 1253 ft 77 kts 315°
2026-05-07 18:46 40.48268 -80.20822 1172 ft 74 kts 314°
2026-05-07 18:46 40.48587 -80.21217 1147 ft 53 kts 321°
2026-05-07 18:46 40.48821 -80.21515 1145 ft 44 kts 315°
2026-05-07 18:47 40.49031 -80.21774 1148 ft 38 kts 316°
2026-05-07 18:47 40.49199 -80.21984 1150 ft 39 kts 314°
2026-05-07 18:47 40.49431 -80.22267 1148 ft 47 kts 313°
2026-05-07 18:47 40.49594 -80.22439 1149 ft 20 kts
2026-05-07 18:48 40.49703 -80.22363 1154 ft 11 kts 45°
2026-05-07 18:48 40.49747 -80.22303 1154 ft 0 kts 46°
2026-05-07 18:54 40.49746 -80.22303 1154 ft 0 kts 46°
2026-05-07 18:54 40.49746 -80.22304 1154 ft 0 kts 46°
2026-05-07 19:02 40.49746 -80.22305 1154 ft 0 kts 46°